Year,Month,Day,Hour,Minute,Value (Times are PST for windgust in km/hr)
2016,03,13,00,00,1.60
2016,03,13,01,08,3.20
2016,03,13,01,09,1.60
2016,03,13,01,11,3.20
2016,03,13,01,12,1.60
2016,03,13,01,15,6.40
2016,03,13,01,16,3.20
2016,03,13,01,17,3.20
2016,03,13,01,19,1.60
2016,03,13,01,20,1.60
2016,03,13,01,21,11.30
2016,03,13,01,22,3.20
2016,03,13,01,23,3.20
2016,03,13,01,24,1.60
2016,03,13,01,25,4.80
2016,03,13,01,27,6.40
2016,03,13,01,28,4.80
2016,03,13,01,30,4.80
2016,03,13,01,31,3.20
2016,03,13,01,32,6.40
2016,03,13,01,33,8.10
2016,03,13,01,34,9.60
2016,03,13,01,35,6.40
2016,03,13,01,36,8.10
2016,03,13,01,37,6.40
2016,03,13,01,38,4.80
2016,03,13,01,39,3.20
2016,03,13,01,40,8.10
2016,03,13,01,41,4.80
2016,03,13,01,43,3.20
2016,03,13,01,45,8.10
2016,03,13,01,46,4.80
2016,03,13,01,47,8.10
2016,03,13,01,48,8.10
2016,03,13,01,49,8.10
2016,03,13,01,50,6.40
2016,03,13,01,54,3.20
2016,03,13,01,55,3.20
2016,03,13,01,56,4.80
2016,03,13,01,57,4.80
2016,03,13,01,59,3.20
2016,03,13,03,00,1.60
2016,03,13,03,01,6.40
2016,03,13,03,02,4.80
2016,03,13,03,03,3.20
2016,03,13,03,06,1.60
2016,03,13,03,08,1.60
2016,03,13,03,09,1.60
2016,03,13,03,11,1.60
2016,03,13,03,12,4.80
2016,03,13,03,18,3.20
2016,03,13,03,20,3.20
2016,03,13,03,22,3.20
2016,03,13,03,23,4.80
2016,03,13,03,24,3.20
2016,03,13,03,25,1.60
2016,03,13,03,26,3.20
2016,03,13,03,27,6.40
2016,03,13,03,28,4.80
2016,03,13,03,29,1.60
2016,03,13,03,30,3.20
2016,03,13,03,33,1.60
2016,03,13,03,34,3.20
2016,03,13,03,35,3.20
2016,03,13,03,41,3.20
2016,03,13,03,42,8.10
2016,03,13,03,43,6.40
2016,03,13,03,44,8.10
2016,03,13,03,46,3.20
2016,03,13,03,49,3.20
2016,03,13,03,50,3.20
2016,03,13,03,51,4.80
2016,03,13,03,52,3.20
2016,03,13,03,53,4.80
2016,03,13,03,55,1.60
2016,03,13,03,56,4.80
2016,03,13,03,57,9.60
2016,03,13,03,58,6.40
2016,03,13,03,59,8.10
2016,03,13,04,00,19.30
2016,03,13,04,01,16.10
2016,03,13,04,02,17.70
2016,03,13,04,03,12.90
2016,03,13,04,04,14.50
2016,03,13,04,05,24.20
2016,03,13,04,06,19.30
2016,03,13,04,07,11.30
2016,03,13,04,08,11.30
2016,03,13,04,09,17.70
2016,03,13,04,10,11.30
2016,03,13,04,11,16.10
2016,03,13,04,12,19.30
2016,03,13,04,13,20.90
2016,03,13,04,14,14.50
2016,03,13,04,15,14.50
2016,03,13,04,16,11.30
2016,03,13,04,17,24.20
2016,03,13,04,18,19.30
2016,03,13,04,19,22.50
2016,03,13,04,20,27.40
2016,03,13,04,21,22.50
2016,03,13,04,22,22.50
2016,03,13,04,23,30.60
2016,03,13,04,24,16.10
2016,03,13,04,25,24.20
2016,03,13,04,26,22.50
2016,03,13,04,27,17.70
2016,03,13,04,28,24.20
2016,03,13,04,29,24.20
2016,03,13,04,30,25.70
2016,03,13,04,31,25.70
2016,03,13,04,32,27.40
2016,03,13,04,33,24.20
2016,03,13,04,34,17.70
2016,03,13,04,35,22.50
2016,03,13,04,36,22.50
2016,03,13,04,37,11.30
2016,03,13,04,38,20.90
2016,03,13,04,39,11.30
2016,03,13,04,40,19.30
2016,03,13,04,41,17.70
2016,03,13,04,42,16.10
2016,03,13,04,43,8.10
2016,03,13,04,44,17.70
2016,03,13,04,45,11.30
2016,03,13,04,46,22.50
2016,03,13,04,47,35.40
2016,03,13,04,48,38.60
2016,03,13,04,49,27.40
2016,03,13,04,50,35.40
2016,03,13,04,51,33.80
2016,03,13,04,52,27.40
2016,03,13,04,53,25.70
2016,03,13,04,54,14.50
2016,03,13,04,55,16.10
2016,03,13,04,56,33.80
2016,03,13,04,57,30.60
2016,03,13,04,58,25.70
2016,03,13,04,59,30.60
2016,03,13,05,00,25.70
2016,03,13,05,01,35.40
2016,03,13,05,02,22.50
2016,03,13,05,03,17.70
2016,03,13,05,04,17.70
2016,03,13,05,05,22.50
2016,03,13,05,06,32.20
2016,03,13,05,07,19.30
2016,03,13,05,08,20.90
2016,03,13,05,09,22.50
2016,03,13,05,10,24.20
2016,03,13,05,11,19.30
2016,03,13,05,12,20.90
2016,03,13,05,13,22.50
2016,03,13,05,14,24.20
2016,03,13,05,15,29.00
2016,03,13,05,16,22.50
2016,03,13,05,17,20.90
2016,03,13,05,18,35.40
2016,03,13,05,19,35.40
2016,03,13,05,20,29.00
2016,03,13,05,21,22.50
2016,03,13,05,22,27.40
2016,03,13,05,23,37.00
2016,03,13,05,24,30.60
2016,03,13,05,25,30.60
2016,03,13,05,26,33.80
2016,03,13,05,27,29.00
2016,03,13,05,28,25.70
2016,03,13,05,29,25.70
2016,03,13,05,30,24.20
2016,03,13,05,31,37.00
2016,03,13,05,32,29.00
2016,03,13,05,33,27.40
2016,03,13,05,34,22.50
2016,03,13,05,35,27.40
2016,03,13,05,36,25.70
2016,03,13,05,37,20.90
2016,03,13,05,38,17.70
2016,03,13,05,39,32.20
2016,03,13,05,40,29.00
2016,03,13,05,41,17.70
2016,03,13,05,42,22.50
2016,03,13,05,43,16.10
2016,03,13,05,44,14.50
2016,03,13,05,45,27.40
2016,03,13,05,46,25.70
2016,03,13,05,47,17.70
2016,03,13,05,48,25.70
2016,03,13,05,49,29.00
2016,03,13,05,50,25.70
2016,03,13,05,51,24.20
2016,03,13,05,52,24.20
2016,03,13,05,53,12.90
2016,03,13,05,54,19.30
2016,03,13,05,55,27.40
2016,03,13,05,56,32.20
2016,03,13,05,57,14.50
2016,03,13,05,58,14.50
2016,03,13,05,59,29.00
2016,03,13,06,00,27.40
2016,03,13,06,01,20.90
2016,03,13,06,02,16.10
2016,03,13,06,03,32.20
2016,03,13,06,04,20.90
2016,03,13,06,05,25.70
2016,03,13,06,06,25.70
2016,03,13,06,07,30.60
2016,03,13,06,08,30.60
2016,03,13,06,09,19.30
2016,03,13,06,10,30.60
2016,03,13,06,11,22.50
2016,03,13,06,12,22.50
2016,03,13,06,13,22.50
2016,03,13,06,14,20.90
2016,03,13,06,15,17.70
2016,03,13,06,16,29.00
2016,03,13,06,17,29.00
2016,03,13,06,18,30.60
2016,03,13,06,19,11.30
2016,03,13,06,20,22.50
2016,03,13,06,21,25.70
2016,03,13,06,22,30.60
2016,03,13,06,23,19.30
2016,03,13,06,24,19.30
2016,03,13,06,25,22.50
2016,03,13,06,26,14.50
2016,03,13,06,27,9.60
2016,03,13,06,28,11.30
2016,03,13,06,29,11.30
2016,03,13,06,30,8.10
2016,03,13,06,31,20.90
2016,03,13,06,32,22.50
2016,03,13,06,33,22.50
2016,03,13,06,34,30.60
2016,03,13,06,35,20.90
2016,03,13,06,36,9.60
2016,03,13,06,37,24.20
2016,03,13,06,38,30.60
2016,03,13,06,39,30.60
2016,03,13,06,40,24.20
2016,03,13,06,41,19.30
2016,03,13,06,42,19.30
2016,03,13,06,43,19.30
2016,03,13,06,44,25.70
2016,03,13,06,45,29.00
2016,03,13,06,46,27.40
2016,03,13,06,47,22.50
2016,03,13,06,48,25.70
2016,03,13,06,49,19.30
2016,03,13,06,50,19.30
2016,03,13,06,51,27.40
2016,03,13,06,52,24.20
2016,03,13,06,53,12.90
2016,03,13,06,54,16.10
2016,03,13,06,55,14.50
2016,03,13,06,56,25.70
2016,03,13,06,57,25.70
2016,03,13,06,58,29.00
2016,03,13,06,59,24.20
2016,03,13,07,00,24.20
2016,03,13,07,01,25.70
2016,03,13,07,02,32.20
2016,03,13,07,03,17.70
2016,03,13,07,04,22.50
2016,03,13,07,05,25.70
2016,03,13,07,06,27.40
2016,03,13,07,07,11.30
2016,03,13,07,08,35.40
2016,03,13,07,09,37.00
2016,03,13,07,10,30.60
2016,03,13,07,11,19.30
2016,03,13,07,12,19.30
2016,03,13,07,13,32.20
2016,03,13,07,14,24.20
2016,03,13,07,15,17.70
2016,03,13,07,16,19.30
2016,03,13,07,17,25.70
2016,03,13,07,18,20.90
2016,03,13,07,19,22.50
2016,03,13,07,20,19.30
2016,03,13,07,21,17.70
2016,03,13,07,22,27.40
2016,03,13,07,23,17.70
2016,03,13,07,24,32.20
2016,03,13,07,25,30.60
2016,03,13,07,26,33.80
2016,03,13,07,27,20.90
2016,03,13,07,28,19.30
2016,03,13,07,29,19.30
2016,03,13,07,30,20.90
2016,03,13,07,31,17.70
2016,03,13,07,32,20.90
2016,03,13,07,33,22.50
2016,03,13,07,34,25.70
2016,03,13,07,35,25.70
2016,03,13,07,36,25.70
2016,03,13,07,37,29.00
2016,03,13,07,38,27.40
2016,03,13,07,39,17.70
2016,03,13,07,40,17.70
2016,03,13,07,41,20.90
2016,03,13,07,42,22.50
2016,03,13,07,43,25.70
2016,03,13,07,44,25.70
2016,03,13,07,45,27.40
2016,03,13,07,46,24.20
2016,03,13,07,47,29.00
2016,03,13,07,48,9.60
2016,03,13,07,49,19.30
2016,03,13,07,50,24.20
2016,03,13,07,51,27.40
2016,03,13,07,52,19.30
2016,03,13,07,53,16.10
2016,03,13,07,54,19.30
2016,03,13,07,55,17.70
2016,03,13,07,56,8.10
2016,03,13,07,57,19.30
2016,03,13,07,58,22.50
2016,03,13,07,59,33.80
2016,03,13,08,00,30.60
2016,03,13,08,01,19.30
2016,03,13,08,02,16.10
2016,03,13,08,03,12.90
2016,03,13,08,04,35.40
2016,03,13,08,05,22.50
2016,03,13,08,06,25.70
2016,03,13,08,07,35.40
2016,03,13,08,08,38.60
2016,03,13,08,09,29.00
2016,03,13,08,10,24.20
2016,03,13,08,11,19.30
2016,03,13,08,12,33.80
2016,03,13,08,13,41.80
2016,03,13,08,14,22.50
2016,03,13,08,15,24.20
2016,03,13,08,16,19.30
2016,03,13,08,17,14.50
2016,03,13,08,18,24.20
2016,03,13,08,19,30.60
2016,03,13,08,20,24.20
2016,03,13,08,21,20.90
2016,03,13,08,22,20.90
2016,03,13,08,23,19.30
2016,03,13,08,24,24.20
2016,03,13,08,25,16.10
2016,03,13,08,26,11.30
2016,03,13,08,27,17.70
2016,03,13,08,28,16.10
2016,03,13,08,29,24.20
2016,03,13,08,30,24.20
2016,03,13,08,31,17.70
2016,03,13,08,32,17.70
2016,03,13,08,33,20.90
2016,03,13,08,34,16.10
2016,03,13,08,35,16.10
2016,03,13,08,36,27.40
2016,03,13,08,37,19.30
2016,03,13,08,38,22.50
2016,03,13,08,39,11.30
2016,03,13,08,40,16.10
2016,03,13,08,41,8.10
2016,03,13,08,42,17.70
2016,03,13,08,43,20.90
2016,03,13,08,44,19.30
2016,03,13,08,45,24.20
2016,03,13,08,46,19.30
2016,03,13,08,47,22.50
2016,03,13,08,48,17.70
2016,03,13,08,49,17.70
2016,03,13,08,50,17.70
2016,03,13,08,51,16.10
2016,03,13,08,52,9.60
2016,03,13,08,53,16.10
2016,03,13,08,54,17.70
2016,03,13,08,55,24.20
2016,03,13,08,56,14.50
2016,03,13,08,57,14.50
2016,03,13,08,58,14.50
2016,03,13,08,59,19.30
2016,03,13,09,00,8.10
2016,03,13,09,01,8.10
2016,03,13,09,02,9.60
2016,03,13,09,03,25.70
2016,03,13,09,04,17.70
2016,03,13,09,05,16.10
2016,03,13,09,06,27.40
2016,03,13,09,07,20.90
2016,03,13,09,08,16.10
2016,03,13,09,09,16.10
2016,03,13,09,10,27.40
2016,03,13,09,11,35.40
2016,03,13,09,12,22.50
2016,03,13,09,13,14.50
2016,03,13,09,14,11.30
2016,03,13,09,15,20.90
2016,03,13,09,16,19.30
2016,03,13,09,17,22.50
2016,03,13,09,18,19.30
2016,03,13,09,19,19.30
2016,03,13,09,20,20.90
2016,03,13,09,21,16.10
2016,03,13,09,22,11.30
2016,03,13,09,23,16.10
2016,03,13,09,24,16.10
2016,03,13,09,25,17.70
2016,03,13,09,26,16.10
2016,03,13,09,27,14.50
2016,03,13,09,28,22.50
2016,03,13,09,29,17.70
2016,03,13,09,30,20.90
2016,03,13,09,31,14.50
2016,03,13,09,32,22.50
2016,03,13,09,33,16.10
2016,03,13,09,34,11.30
2016,03,13,09,35,22.50
2016,03,13,09,36,8.10
2016,03,13,09,37,16.10
2016,03,13,09,38,19.30
2016,03,13,09,39,19.30
2016,03,13,09,40,25.70
2016,03,13,09,41,29.00
2016,03,13,09,42,14.50
2016,03,13,09,43,14.50
2016,03,13,09,44,6.40
2016,03,13,09,45,24.20
2016,03,13,09,46,14.50
2016,03,13,09,47,12.90
2016,03,13,09,48,8.10
2016,03,13,09,49,19.30
2016,03,13,09,50,16.10
2016,03,13,09,51,19.30
2016,03,13,09,52,19.30
2016,03,13,09,53,25.70
2016,03,13,09,54,30.60
2016,03,13,09,55,24.20
2016,03,13,09,56,20.90
2016,03,13,09,57,25.70
2016,03,13,09,58,30.60
2016,03,13,09,59,33.80
2016,03,13,10,00,20.90
2016,03,13,10,01,27.40
2016,03,13,10,02,19.30
2016,03,13,10,03,29.00
2016,03,13,10,04,33.80
2016,03,13,10,05,14.50
2016,03,13,10,06,22.50
2016,03,13,10,07,27.40
2016,03,13,10,08,27.40
2016,03,13,10,09,29.00
2016,03,13,10,10,29.00
2016,03,13,10,11,16.10
2016,03,13,10,12,20.90
2016,03,13,10,13,14.50
2016,03,13,10,14,20.90
2016,03,13,10,15,20.90
2016,03,13,10,16,24.20
2016,03,13,10,17,19.30
2016,03,13,10,18,17.70
2016,03,13,10,19,14.50
2016,03,13,10,20,9.60
2016,03,13,10,21,33.80
2016,03,13,10,22,16.10
2016,03,13,10,23,16.10
2016,03,13,10,24,17.70
2016,03,13,10,25,9.60
2016,03,13,10,26,22.50
2016,03,13,10,27,14.50
2016,03,13,10,28,8.10
2016,03,13,10,29,11.30
2016,03,13,10,30,14.50
2016,03,13,10,31,16.10
2016,03,13,10,32,14.50
2016,03,13,10,33,11.30
2016,03,13,10,34,14.50
2016,03,13,10,35,14.50
2016,03,13,10,36,17.70
2016,03,13,10,37,20.90
2016,03,13,10,38,27.40
2016,03,13,10,39,22.50
2016,03,13,10,40,22.50
2016,03,13,10,41,27.40
2016,03,13,10,42,17.70
2016,03,13,10,43,17.70
2016,03,13,10,44,27.40
2016,03,13,10,45,16.10
2016,03,13,10,46,24.20
2016,03,13,10,47,20.90
2016,03,13,10,48,25.70
2016,03,13,10,49,20.90
2016,03,13,10,50,27.40
2016,03,13,10,51,25.70
2016,03,13,10,52,9.60
2016,03,13,10,53,17.70
2016,03,13,10,54,12.90
2016,03,13,10,55,19.30
2016,03,13,10,56,17.70
2016,03,13,10,57,25.70
2016,03,13,10,58,16.10
2016,03,13,10,59,33.80
2016,03,13,11,00,33.80
2016,03,13,11,01,20.90
2016,03,13,11,02,25.70
2016,03,13,11,03,19.30
2016,03,13,11,04,20.90
2016,03,13,11,05,27.40
2016,03,13,11,06,20.90
2016,03,13,11,07,22.50
2016,03,13,11,08,22.50
2016,03,13,11,09,17.70
2016,03,13,11,10,20.90
2016,03,13,11,11,27.40
2016,03,13,11,12,16.10
2016,03,13,11,13,25.70
2016,03,13,11,14,20.90
2016,03,13,11,15,25.70
2016,03,13,11,16,19.30
2016,03,13,11,17,8.10
2016,03,13,11,18,20.90
2016,03,13,11,19,14.50
2016,03,13,11,20,27.40
2016,03,13,11,21,20.90
2016,03,13,11,22,25.70
2016,03,13,11,23,19.30
2016,03,13,11,24,20.90
2016,03,13,11,25,25.70
2016,03,13,11,26,14.50
2016,03,13,11,27,11.30
2016,03,13,11,28,22.50
2016,03,13,11,29,19.30
2016,03,13,11,30,25.70
2016,03,13,11,31,27.40
2016,03,13,11,32,27.40
2016,03,13,11,33,22.50
2016,03,13,11,34,27.40
2016,03,13,11,35,24.20
2016,03,13,11,36,22.50
2016,03,13,11,37,27.40
2016,03,13,11,38,19.30
2016,03,13,11,39,20.90
2016,03,13,11,40,20.90
2016,03,13,11,41,16.10
2016,03,13,11,42,22.50
2016,03,13,11,43,14.50
2016,03,13,11,44,20.90
2016,03,13,11,45,11.30
2016,03,13,11,46,17.70
2016,03,13,11,47,20.90
2016,03,13,11,48,19.30
2016,03,13,11,49,16.10
2016,03,13,11,50,14.50
2016,03,13,11,51,22.50
2016,03,13,11,52,20.90
2016,03,13,11,53,24.20
2016,03,13,11,54,24.20
2016,03,13,11,55,16.10
2016,03,13,11,56,19.30
2016,03,13,11,57,16.10
2016,03,13,11,58,16.10
2016,03,13,11,59,11.30
2016,03,13,12,00,25.70
2016,03,13,12,01,17.70
2016,03,13,12,02,22.50
2016,03,13,12,03,30.60
2016,03,13,12,04,17.70
2016,03,13,12,05,20.90
2016,03,13,12,06,17.70
2016,03,13,12,07,32.20
2016,03,13,12,08,30.60
2016,03,13,12,09,30.60
2016,03,13,12,10,24.20
2016,03,13,12,11,30.60
2016,03,13,12,12,20.90
2016,03,13,12,13,24.20
2016,03,13,12,14,24.20
2016,03,13,12,15,19.30
2016,03,13,12,16,9.60
2016,03,13,12,17,11.30
2016,03,13,12,18,19.30
2016,03,13,12,19,16.10
2016,03,13,12,20,25.70
2016,03,13,12,21,14.50
2016,03,13,12,22,20.90
2016,03,13,12,23,24.20
2016,03,13,12,24,22.50
2016,03,13,12,25,16.10
2016,03,13,12,26,14.50
2016,03,13,12,27,6.40
2016,03,13,12,28,9.60
2016,03,13,12,29,32.20
2016,03,13,12,30,17.70
2016,03,13,12,31,14.50
2016,03,13,12,32,25.70
2016,03,13,12,33,24.20
2016,03,13,12,34,30.60
2016,03,13,12,35,19.30
2016,03,13,12,36,16.10
2016,03,13,12,37,25.70
2016,03,13,12,38,27.40
2016,03,13,12,39,20.90
2016,03,13,12,40,17.70
2016,03,13,12,41,30.60
2016,03,13,12,42,16.10
2016,03,13,12,43,14.50
2016,03,13,12,44,16.10
2016,03,13,12,45,12.90
2016,03,13,12,46,22.50
2016,03,13,12,47,27.40
2016,03,13,12,48,16.10
2016,03,13,12,49,19.30
2016,03,13,12,50,9.60
2016,03,13,12,51,14.50
2016,03,13,12,52,32.20
2016,03,13,12,53,17.70
2016,03,13,12,54,27.40
2016,03,13,12,55,25.70
2016,03,13,12,56,40.20
2016,03,13,12,57,17.70
2016,03,13,12,58,30.60
2016,03,13,12,59,37.00
2016,03,13,13,00,37.00
2016,03,13,13,01,33.80
2016,03,13,13,02,30.60
2016,03,13,13,03,35.40
2016,03,13,13,04,38.60
2016,03,13,13,05,25.70
2016,03,13,13,06,19.30
2016,03,13,13,07,27.40
2016,03,13,13,08,32.20
2016,03,13,13,09,35.40
2016,03,13,13,10,25.70
2016,03,13,13,11,27.40
2016,03,13,13,12,27.40
2016,03,13,13,13,38.60
2016,03,13,13,14,30.60
2016,03,13,13,15,41.80
2016,03,13,13,16,30.60
2016,03,13,13,17,30.60
2016,03,13,13,18,20.90
2016,03,13,13,19,38.60
2016,03,13,13,20,29.00
2016,03,13,13,21,35.40
2016,03,13,13,22,49.90
2016,03,13,13,23,37.00
2016,03,13,13,24,32.20
2016,03,13,13,25,35.40
2016,03,13,13,26,27.40
2016,03,13,13,27,27.40
2016,03,13,13,28,19.30
2016,03,13,13,29,27.40
2016,03,13,13,30,33.80
2016,03,13,13,31,24.20
2016,03,13,13,32,45.10
2016,03,13,13,33,27.40
2016,03,13,13,34,27.40
2016,03,13,13,35,33.80
2016,03,13,13,36,20.90
2016,03,13,13,37,33.80
2016,03,13,13,38,27.40
2016,03,13,13,39,24.20
2016,03,13,13,40,24.20
2016,03,13,13,41,25.70
2016,03,13,13,42,35.40
2016,03,13,13,43,22.50
2016,03,13,13,44,32.20
2016,03,13,13,45,41.80
2016,03,13,13,46,24.20
2016,03,13,13,47,37.00
2016,03,13,13,48,25.70
2016,03,13,13,49,19.30
2016,03,13,13,50,16.10
2016,03,13,13,51,24.20
2016,03,13,13,52,29.00
2016,03,13,13,53,41.80
2016,03,13,13,54,16.10
2016,03,13,13,55,27.40
2016,03,13,13,56,41.80
2016,03,13,13,57,25.70
2016,03,13,13,58,30.60
2016,03,13,13,59,25.70
2016,03,13,14,00,20.90
2016,03,13,14,01,37.00
2016,03,13,14,02,22.50
2016,03,13,14,03,29.00
2016,03,13,14,04,30.60
2016,03,13,14,05,14.50
2016,03,13,14,06,25.70
2016,03,13,14,07,33.80
2016,03,13,14,08,29.00
2016,03,13,14,09,27.40
2016,03,13,14,10,25.70
2016,03,13,14,11,30.60
2016,03,13,14,12,33.80
2016,03,13,14,13,9.60
2016,03,13,14,14,30.60
2016,03,13,14,15,27.40
2016,03,13,14,16,40.20
2016,03,13,14,17,29.00
2016,03,13,14,18,32.20
2016,03,13,14,19,25.70
2016,03,13,14,20,27.40
2016,03,13,14,21,17.70
2016,03,13,14,22,30.60
2016,03,13,14,23,24.20
2016,03,13,14,24,24.20
2016,03,13,14,25,17.70
2016,03,13,14,26,43.50
2016,03,13,14,27,33.80
2016,03,13,14,28,29.00
2016,03,13,14,29,20.90
2016,03,13,14,30,32.20
2016,03,13,14,31,41.80
2016,03,13,14,32,37.00
2016,03,13,14,33,53.10
2016,03,13,14,34,38.60
2016,03,13,14,35,37.00
2016,03,13,14,36,38.60
2016,03,13,14,37,33.80
2016,03,13,14,38,24.20
2016,03,13,14,39,24.20
2016,03,13,14,40,17.70
2016,03,13,14,41,25.70
2016,03,13,14,42,35.40
2016,03,13,14,43,51.50
2016,03,13,14,44,25.70
2016,03,13,14,45,33.80
2016,03,13,14,46,46.70
2016,03,13,14,47,48.30
2016,03,13,14,48,46.70
2016,03,13,14,49,38.60
2016,03,13,14,50,37.00
2016,03,13,14,51,48.30
2016,03,13,14,52,37.00
2016,03,13,14,53,38.60
2016,03,13,14,54,35.40
2016,03,13,14,55,37.00
2016,03,13,14,56,48.30
2016,03,13,14,57,45.10
2016,03,13,14,58,53.10
2016,03,13,14,59,32.20
2016,03,13,15,00,33.80
2016,03,13,15,01,37.00
2016,03,13,15,02,37.00
2016,03,13,15,03,46.70
2016,03,13,15,04,37.00
2016,03,13,15,05,41.80
2016,03,13,15,06,32.20
2016,03,13,15,07,48.30
2016,03,13,15,08,37.00
2016,03,13,15,09,32.20
2016,03,13,15,10,29.00
2016,03,13,15,11,37.00
2016,03,13,15,12,29.00
2016,03,13,15,13,29.00
2016,03,13,15,14,40.20
2016,03,13,15,15,30.60
2016,03,13,15,16,24.20
2016,03,13,15,17,22.50
2016,03,13,15,18,45.10
2016,03,13,15,19,41.80
2016,03,13,15,20,32.20
2016,03,13,15,21,38.60
2016,03,13,15,22,38.60
2016,03,13,15,23,40.20
2016,03,13,15,24,29.00
2016,03,13,15,25,37.00
2016,03,13,15,26,25.70
2016,03,13,15,27,46.70
2016,03,13,15,28,29.00
2016,03,13,15,29,27.40
2016,03,13,15,30,25.70
2016,03,13,15,31,29.00
2016,03,13,15,32,32.20
2016,03,13,15,33,30.60
2016,03,13,15,34,20.90
2016,03,13,15,35,25.70
2016,03,13,15,36,29.00
2016,03,13,15,37,38.60
2016,03,13,15,38,32.20
2016,03,13,15,39,27.40
2016,03,13,15,40,30.60
2016,03,13,15,41,30.60
2016,03,13,15,42,35.40
2016,03,13,15,43,32.20
2016,03,13,15,44,24.20
2016,03,13,15,45,25.70
2016,03,13,15,46,32.20
2016,03,13,15,47,29.00
2016,03,13,15,48,20.90
2016,03,13,15,49,22.50
2016,03,13,15,50,33.80
2016,03,13,15,51,38.60
2016,03,13,15,52,38.60
2016,03,13,15,53,41.80
2016,03,13,15,54,43.50
2016,03,13,15,55,35.40
2016,03,13,15,56,25.70
2016,03,13,15,57,25.70
2016,03,13,15,58,24.20
2016,03,13,15,59,33.80
2016,03,13,16,00,29.00
2016,03,13,16,01,32.20
2016,03,13,16,02,33.80
2016,03,13,16,03,38.60
2016,03,13,16,04,30.60
2016,03,13,16,05,32.20
2016,03,13,16,06,35.40
2016,03,13,16,07,33.80
2016,03,13,16,08,30.60
2016,03,13,16,09,30.60
2016,03,13,16,10,33.80
2016,03,13,16,11,37.00
2016,03,13,16,12,32.20
2016,03,13,16,13,32.20
2016,03,13,16,14,27.40
2016,03,13,16,15,41.80
2016,03,13,16,16,25.70
2016,03,13,16,17,30.60
2016,03,13,16,18,37.00
2016,03,13,16,19,37.00
2016,03,13,16,20,41.80
2016,03,13,16,21,24.20
2016,03,13,16,22,27.40
2016,03,13,16,23,25.70
2016,03,13,16,24,25.70
2016,03,13,16,25,37.00
2016,03,13,16,26,38.60
2016,03,13,16,27,40.20
2016,03,13,16,28,38.60
2016,03,13,16,29,33.80
2016,03,13,16,30,40.20
2016,03,13,16,31,46.70
2016,03,13,16,32,49.90
2016,03,13,16,33,43.50
2016,03,13,16,34,33.80
2016,03,13,16,35,33.80
2016,03,13,16,36,32.20
2016,03,13,16,37,30.60
2016,03,13,16,38,33.80
2016,03,13,16,39,24.20
2016,03,13,16,40,40.20
2016,03,13,16,41,43.50
2016,03,13,16,42,46.70
2016,03,13,16,43,32.20
2016,03,13,16,44,32.20
2016,03,13,16,45,41.80
2016,03,13,16,46,43.50
2016,03,13,16,47,35.40
2016,03,13,16,48,41.80
2016,03,13,16,49,32.20
2016,03,13,16,50,33.80
2016,03,13,16,51,35.40
2016,03,13,16,52,45.10
2016,03,13,16,53,32.20
2016,03,13,16,54,30.60
2016,03,13,16,55,46.70
2016,03,13,16,56,53.10
2016,03,13,16,57,45.10
2016,03,13,16,58,54.70
2016,03,13,16,59,33.80
2016,03,13,17,00,54.70
2016,03,13,17,01,51.50
2016,03,13,17,02,54.70
2016,03,13,17,03,40.20
2016,03,13,17,04,53.10
2016,03,13,17,05,53.10
2016,03,13,17,06,53.10
2016,03,13,17,07,45.10
2016,03,13,17,08,45.10
2016,03,13,17,09,54.70
2016,03,13,17,10,64.40
2016,03,13,17,11,45.10
2016,03,13,17,12,51.50
2016,03,13,17,13,64.40
2016,03,13,17,14,62.70
2016,03,13,17,15,57.90
2016,03,13,17,16,53.10
2016,03,13,17,17,38.60
2016,03,13,17,18,61.20
2016,03,13,17,19,59.50
2016,03,13,17,20,64.40
2016,03,13,17,21,61.20
2016,03,13,17,22,57.90
2016,03,13,17,23,67.60
2016,03,13,17,24,59.50
2016,03,13,17,25,54.70
2016,03,13,17,26,53.10
2016,03,13,17,27,61.20
2016,03,13,17,28,72.40
2016,03,13,17,29,54.70
2016,03,13,17,30,64.40
2016,03,13,17,31,75.60
2016,03,13,17,32,62.70
2016,03,13,17,33,67.60
2016,03,13,17,34,72.40
2016,03,13,17,35,51.50
2016,03,13,17,36,54.70
2016,03,13,17,37,61.20
2016,03,13,17,38,72.40
2016,03,13,17,39,54.70
2016,03,13,17,40,64.40
2016,03,13,17,41,53.10
2016,03,13,17,42,62.70
2016,03,13,17,43,53.10
2016,03,13,17,44,57.90
2016,03,13,17,45,59.50
2016,03,13,17,46,41.80
2016,03,13,17,47,45.10
2016,03,13,17,48,37.00
2016,03,13,17,49,43.50
2016,03,13,17,50,49.90
2016,03,13,17,51,37.00
2016,03,13,17,52,32.20
2016,03,13,17,53,48.30
2016,03,13,17,54,40.20
2016,03,13,17,55,53.10
2016,03,13,17,56,51.50
2016,03,13,17,57,53.10
2016,03,13,17,58,53.10
2016,03,13,17,59,51.50
2016,03,13,18,00,59.50
2016,03,13,18,01,53.10
2016,03,13,18,02,33.80
2016,03,13,18,03,53.10
2016,03,13,18,04,57.90
2016,03,13,18,05,53.10
2016,03,13,18,06,46.70
2016,03,13,18,07,37.00
2016,03,13,18,08,38.60
2016,03,13,18,09,43.50
2016,03,13,18,10,57.90
2016,03,13,18,11,46.70
2016,03,13,18,12,53.10
2016,03,13,18,13,61.20
2016,03,13,18,14,43.50
2016,03,13,18,15,54.70
2016,03,13,18,16,48.30
2016,03,13,18,17,59.50
2016,03,13,18,18,59.50
2016,03,13,18,19,45.10
2016,03,13,18,20,49.90
2016,03,13,18,21,35.40
2016,03,13,18,22,45.10
2016,03,13,18,23,29.00
2016,03,13,18,24,33.80
2016,03,13,18,25,40.20
2016,03,13,18,26,43.50
2016,03,13,18,27,40.20
2016,03,13,18,28,48.30
2016,03,13,18,29,45.10
2016,03,13,18,30,35.40
2016,03,13,18,31,43.50
2016,03,13,18,32,54.70
2016,03,13,18,33,38.60
2016,03,13,18,34,49.90
2016,03,13,18,35,48.30
2016,03,13,18,36,48.30
2016,03,13,18,37,53.10
2016,03,13,18,38,53.10
2016,03,13,18,39,40.20
2016,03,13,18,40,45.10
2016,03,13,18,41,41.80
2016,03,13,18,42,30.60
2016,03,13,18,43,41.80
2016,03,13,18,44,40.20
2016,03,13,18,45,56.30
2016,03,13,18,46,53.10
2016,03,13,18,47,48.30
2016,03,13,18,48,43.50
2016,03,13,18,49,37.00
2016,03,13,18,50,43.50
2016,03,13,18,51,41.80
2016,03,13,18,52,48.30
2016,03,13,18,53,45.10
2016,03,13,18,54,38.60
2016,03,13,18,55,48.30
2016,03,13,18,56,45.10
2016,03,13,18,57,40.20
2016,03,13,18,58,46.70
2016,03,13,18,59,33.80
2016,03,13,19,00,37.00
2016,03,13,19,01,35.40
2016,03,13,19,02,33.80
2016,03,13,19,03,27.40
2016,03,13,19,04,33.80
2016,03,13,19,05,30.60
2016,03,13,19,06,27.40
2016,03,13,19,07,25.70
2016,03,13,19,08,35.40
2016,03,13,19,09,29.00
2016,03,13,19,10,33.80
2016,03,13,19,11,27.40
2016,03,13,19,12,29.00
2016,03,13,19,13,27.40
2016,03,13,19,14,20.90
2016,03,13,19,15,41.80
2016,03,13,19,16,32.20
2016,03,13,19,17,19.30
2016,03,13,19,18,16.10
2016,03,13,19,19,29.00
2016,03,13,19,20,29.00
2016,03,13,19,21,29.00
2016,03,13,19,22,16.10
2016,03,13,19,23,17.70
2016,03,13,19,24,24.20
2016,03,13,19,25,27.40
2016,03,13,19,26,37.00
2016,03,13,19,27,29.00
2016,03,13,19,28,24.20
2016,03,13,19,29,27.40
2016,03,13,19,30,27.40
2016,03,13,19,31,38.60
2016,03,13,19,32,41.80
2016,03,13,19,33,38.60
2016,03,13,19,34,27.40
2016,03,13,19,35,32.20
2016,03,13,19,36,25.70
2016,03,13,19,37,22.50
2016,03,13,19,38,22.50
2016,03,13,19,39,29.00
2016,03,13,19,40,33.80
2016,03,13,19,41,33.80
2016,03,13,19,42,33.80
2016,03,13,19,43,38.60
2016,03,13,19,44,37.00
2016,03,13,19,45,24.20
2016,03,13,19,46,30.60
2016,03,13,19,47,20.90
2016,03,13,19,48,29.00
2016,03,13,19,49,24.20
2016,03,13,19,50,24.20
2016,03,13,19,51,22.50
2016,03,13,19,52,29.00
2016,03,13,19,53,29.00
2016,03,13,19,54,33.80
2016,03,13,19,55,29.00
2016,03,13,19,56,25.70
2016,03,13,19,57,33.80
2016,03,13,19,58,29.00
2016,03,13,19,59,29.00
2016,03,13,20,00,30.60
2016,03,13,20,01,35.40
2016,03,13,20,02,37.00
2016,03,13,20,03,37.00
2016,03,13,20,04,22.50